This demonstration page uses our WeatherBlox Daily Observations layout. Learn more.

Left ArrowRight Arrow

39.92423, -83.80882

Hourly Observations for January 17, 2019

Temp ( °F °C ) Dew Point ( °F °C ) Humidity (%) Winds ( mph kmh ) Pressure ( in mb ) Visibility ( mi km ) Precip ( " mm )
12:56 am 00:56 Cloudy 30 -1.1 27 -2.8 88 88 SSE 5 7 30.29 1026 10 16 N/A
1:56 am 01:56 Cloudy 29 -1.7 27 -2.8 92 92 E 5 7 30.27 1025 10 16 N/A
2:56 am 02:56 Cloudy 30 -1.1 27 -2.8 88 88 SE 7 11 30.27 1025 10 16 N/A
3:56 am 03:56 Cloudy 31 -0.6 27 -2.8 85 85 SE 6 9 30.26 1025 10 16 N/A
4:56 am 04:56 Cloudy 30 -1.1 27 -2.8 88 88 SE 8 13 30.24 1024 10 16 N/A
5:56 am 05:56 Cloudy 30 -1.1 28 -2.2 92 92 ESE 9 15 30.22 1023 10 16 N/A
6:45 am 06:45 Cloudy 30 -1 28 -2 93 93 SE 7 11 30.24 1024 10 16 N/A
6:56 am 06:56 Cloudy 30 -1.1 29 -1.7 96 96 SE 7 11 30.22 1023 10 16 N/A
7:56 am 07:56 Cloudy 30 -1.1 29 -1.7 96 96 SE 7 11 30.20 1023 9 14 N/A
8:56 am 08:56 Cloudy with Light Snow 30 -1.1 30 -1.1 100 100 SE 10 17 30.17 1022 7 11 N/A
9:06 am 09:06 Cloudy with Light Snow 30 -1 30 -1 100 100 ESE 10 17 30.18 1022 7 11 N/A
9:56 am 09:56 Cloudy with Light Wintry Mix 31 -0.6 30 -1.1 96 96 SE 14 22 30.16 1021 8 13 N/A
10:14 am 10:14 Cloudy with Light Snow 30 -1 30 -1 100 100 SE 13 20 30.18 1022 3 4 N/A
10:23 am 10:23 Cloudy with Light Snow 30 -1 30 -1 100 100 SE 12 19 30.18 1022 2 3 N/A
10:31 am 10:31 Cloudy with Light Snow 30 -1 30 -1 100 100 SE 12 19 30.18 1022 1 2 N/A
10:49 am 10:49 Cloudy with Light Snow 30 -1 30 -1 100 100 SE 12 19 30.18 1022 2 3 N/A
10:56 am 10:56 Cloudy with Light Snow 32 undefined 31 -0.6 96 96 SSE 10 17 30.17 1022 2 3 N/A
11:05 am 11:05 Cloudy with Light Snow 32 undefined 30 -1 93 93 SSE 10 17 30.18 1022 2 3 N/A
11:14 am 11:14 Cloudy with Light Snow 32 undefined 30 -1 93 93 SE 12 19 30.18 1022 3 4 N/A
11:36 am 11:36 Cloudy with Light Snow 32 undefined 32 undefined 100 100 SSE 10 17 30.18 1022 4 6 0.01 0.25
11:56 am 11:56 Cloudy with Light Snow 32 undefined 32 undefined 100 100 SE 12 19 30.15 1021 6 10 0.02 0.51
12:10 pm 12:10 Cloudy with Light Snow 32 undefined 32 undefined 100 100 SSE 13 20 30.15 1021 2 3 0.01 0.25
12:31 pm 12:31 Cloudy with Light Snow 34 1 32 undefined 93 93 SE 9 15 30.15 1021 5 8 0.03 0.76
12:56 pm 12:56 Cloudy with Light Rain 33 0.6 32 undefined 96 96 SE 10 17 30.10 1019 10 16 0.03 0.76
1:56 pm 13:56 Cloudy with Light Rain 33 0.6 33 0.6 100 100 SE 10 17 30.06 1018 10 16 0.01 0.25
2:06 pm 14:06 Cloudy with Light Rain 34 1 34 1 100 100 SE 10 17 30.09 1019 10 16 N/A
2:56 pm 14:56 Cloudy with Light Rain 34 1.1 33 0.6 97 97 SE 9 15 30.04 1017 6 10 0.02 0.51
3:56 pm 15:56 Cloudy with Light Rain 34 1.1 33 0.6 97 97 SE 10 17 30.02 1017 5 8 0.03 0.76
4:56 pm 16:56 Cloudy with Light Rain 34 1.1 33 0.6 97 97 SE 9 15 30.01 1016 5 8 0.03 0.76
5:56 pm 17:56 Cloudy with Light Rain 34 1.1 34 1.1 100 100 SE 9 15 30.00 1016 3 5 0.02 0.51
6:56 pm 18:56 Cloudy with Light Rain 34 1.1 34 1.1 100 100 SSE 6 9 30.01 1016 4 6 0.04 1.02
7:56 pm 19:56 Cloudy with Light Rain 34 1.1 34 1.1 100 100 SSE 7 11 30.01 1016 4 6 N/A
8:17 pm 20:17 Cloudy with Mist and Fog 34 1 34 1 100 100 SSE 7 11 30.03 1017 3 4 N/A
8:37 pm 20:37 Cloudy with Mist and Fog 34 1 34 1 100 100 S 5 7 30.03 1017 2 2 N/A
8:56 pm 20:56 Cloudy with Mist and Fog 34 1.1 34 1.1 100 100 S 6 9 29.99 1016 1 2 N/A
9:03 pm 21:03 Cloudy with Mist and Fog 34 1 34 1 100 100 SSW 6 9 30.03 1017 1 2 N/A
9:18 pm 21:18 Cloudy with Mist and Fog 36 2 36 2 100 100 SSW 6 9 30.03 1017 1 1 0.01 0.25
9:30 pm 21:30 Cloudy with Fog 34 1 34 1 100 100 SW 7 11 30.03 1017 1 1 0.01 0.25
9:56 pm 21:56 Cloudy with Fog 35 1.7 35 1.7 100 100 WSW 9 15 30.02 1017 0 0 0.01 0.25
10:46 pm 22:46 Cloudy with Fog 36 2 36 2 100 100 W 10 17 30.06 1018 1 1 N/A
10:56 pm 22:56 Cloudy with Mist and Fog 35 1.7 35 1.7 100 100 W 10 17 30.03 1017 1 1 N/A
11:02 pm 23:02 Cloudy with Mist and Fog 36 2 36 2 100 100 W 13 20 30.06 1018 1 2 N/A
11:08 pm 23:08 Cloudy with Mist and Fog 36 2 36 2 100 100 WNW 13 20 30.06 1018 3 5 N/A
11:56 pm 23:56 Cloudy with Mist and Fog 35 1.7 35 1.7 100 100 WNW 12 19 30.04 1017 6 10 N/A

Powered by AerisWeather